Temperature
11 10 9 10 10 11 11 11 10 10 11 10 10 10 11 11 11 11 11 11 10 10 9 9 9 9 9 9 8 8 8 8 8 8 8 8 8 8 8 8 8 8 8 8
10 9 10 11 11 10 10 10 10 10 10 10 9 10 11 11 10 10 10 10 10 10 9 9 8 8 8 8 8 8 8 8 8 8 8 8 8 7 7 7 7 7 7 7
9 9 10 10 10 10 10 9 9 9 9 9 9 9 10 10 10 10 10 10 10 9 9 8 8 8 8 8 8 8 8 7 7 7 7 7 7 7 7 7 7 7 7 7
9 10 10 9 9 9 8 9 9 9 8 7 9 7 9 10 9 9 10 10 9 9 8 8 7 7 7 7 7 7 7 7 7 7 7 7 7 7 7 7 6 6 6 6
8 9 9 8 8 9 8 8 8 8 7 6 8 7 8 9 9 9 9 9 9 8 8 7 7 7 7 7 7 7 7 7 6 6 6 6 6 6 6 6 6 6 6 6
8 8 8 8 8 8 8 7 7 7 6 5 7 7 8 8 9 9 9 8 8 8 7 7 7 6 6 6 6 6 6 6 6 6 6 6 6 6 6 5 5 5 5 5
8 8 8 8 7 7 7 6 6 6 5 6 8 7 7 9 9 9 8 8 8 7 6 6 6 5 5 6 6 6 6 6 6 6 5 5 5 5 5 5 5 5 5 5
7 7 7 7 7 6 6 6 5 6 6 7 7 6 7 8 8 8 8 7 7 6 6 5 5 5 5 5 5 5 5 5 5 5 5 5 5 4 4 4 4 4 4 5
7 6 7 7 7 7 6 6 6 5 5 5 6 7 8 7 7 7 7 7 6 6 5 5 5 5 5 5 5 4 4 5 5 5 4 4 4 4 4 4 4 4 4 4
6 5 6 6 6 6 6 6 5 4 5 5 7 7 7 6 6 6 6 6 6 5 5 5 4 4 4 4 4 4 4 4 4 4 4 4 4 3 3 3 3 3 3 3
6 4 4 4 4 4 4 4 4 4 5 5 5 6 7 6 6 6 5 5 5 5 5 4 4 4 4 4 3 3 3 3 4 4 3 3 3 3 3 3 3 3 3 3
5 4 3 4 4 4 4 4 4 3 4 4 4 5 7 6 6 5 5 5 4 4 4 4 4 3 3 3 3 3 3 3 3 3 3 3 3 3 2 2 2 2 2 2
4 3 3 3 3 3 3 3 3 2 3 3 4 5 6 5 5 5 5 4 4 3 3 3 3 3 3 3 3 2 2 3 3 3 3 2 2 2 2 2 2 2 2 2
4 2 2 3 4 3 2 2 2 2 2 3 3 4 5 5 4 4 4 4 3 3 3 3 2 2 2 2 2 2 2 2 2 2 2 2 2 2 1 1 1 1 1 1
2 1 2 2 3 3 2 2 1 1 2 2 3 4 4 4 4 4 4 3 3 2 2 2 2 2 2 2 2 1 1 2 2 1 1 1 1 1 1 1 1 1 1 1
1 1 1 1 2 2 1 2 2 1 1 2 2 3 4 4 4 3 3 3 2 2 2 1 1 1 1 1 1 1 1 1 1 1 1 1 1 1 1 1 1 1 1 1
-0 0 1 1 1 1 1 1 1 1 1 1 2 3 3 3 2 2 2 2 2 1 1 1 1 1 1 1 1 1 1 1 0 0 0 0 0 0 0 0 0 0 0 0
-1 -1 0 1 1 0 2 2 2 1 1 1 2 2 2 2 2 2 2 2 1 1 1 1 0 0 0 0 0 0 0 0 0 0 0 0 0 -0 -0 -0 -0 -0 -0 -0
-1 -1 -0 0 0 1 2 2 1 1 0 1 1 1 1 1 1 1 2 1 1 0 0 0 -0 -0 -0 0 0 0 0 -0 -0 -0 -0 -0 -1 -1 -1 -1 -1 -1 -1 -1
-2 -2 -1 -0 0 1 2 1 1 1 -0 1 1 0 0 0 -1 -0 1 0 0 -0 -0 -0 -0 -1 -1 -1 -0 -1 -0 -0 -0 -1 -1 -1 -1 -1 -1 -1 -1 -1 -1 -1
-2 -2 -1 -1 -0 0 1 0 1 0 1 1 1 0 -0 -1 -1 0 -0 -0 -1 -1 -1 -1 -1 -1 -1 -1 -1 -1 -1 -1 -1 -1 -1 -1 -1 -2 -2 -2 -2 -2 -2 -2
-2 -2 -2 -1 -1 0 -0 -0 -1 -0 1 1 0 -0 -0 -0 -1 -1 -1 -1 -1 -1 -1 -1 -1 -1 -1 -1 -1 -1 -1 -1 -2 -2 -2 -2 -2 -2 -2 -2 -2 -2 -2 -2
-1 -1 -1 -1 -0 0 1 0 1 0 -0 -0 -1 -1 -1 -1 -1 -1 -2 -2 -2 -2 -2 -2 -2 -2 -2 -2 -2 -2 -2 -2 -2 -2 -2 -2 -2 -2 -2 -2 -2 -2 -3 -3
-1 -1 -1 -2 -1 -0 0 0 0 -0 -1 -1 -1 -1 -1 -2 -2 -2 -2 -2 -2 -2 -2 -2 -2 -2 -2 -2 -2 -2 -3 -3 -3 -2 -2 -2 -2 -2 -3 -3 -3 -3 -3 -3
-1 -3 -2 -3 -2 -1 0 -0 -0 -1 -1 -1 -1 -2 -2 -2 -2 -2 -2 -3 -3 -3 -3 -3 -3 -3 -2 -2 -3 -3 -3 -3 -3 -3 -3 -3 -3 -3 -3 -3 -3 -3 -3 -4
-2 -3 -3 -2 -1 -2 -1 -1 -1 -1 -1 -2 -2 -2 -2 -2 -3 -3 -3 -3 -3 -3 -3 -3 -3 -3 -3 -3 -3 -3 -3 -3 -3 -3 -3 -3 -3 -3 -3 -3 -3 -4 -4 -4
Wind_Speed
2 1 2 2 4 5 6 6 7 6 3 4 8 10 7 5 5 5 5 4 4 3 3 3 3 5 4 4 4 5 5 4 3 3 2 2 2 1 1 1 3 3 3 3
1 3 3 3 3 5 6 7 7 5 3 5 8 11 8 5 5 5 5 4 4 2 2 2 3 4 4 4 4 4 4 4 4 3 2 2 2 1 1 1 2 2 3 3
3 1 3 3 4 5 6 6 6 6 7 5 6 8 6 4 4 4 4 4 3 3 3 3 2 2 3 3 3 3 4 4 4 3 2 2 2 1 1 1 1 1 2 3
2 2 3 3 4 5 6 4 5 6 6 4 3 5 5 4 4 5 5 4 3 3 3 3 2 2 3 3 3 3 3 4 3 3 3 3 3 3 2 2 2 2 3 3
2 1 2 3 4 4 3 5 6 6 6 6 6 5 6 4 5 5 4 3 2 2 3 2 2 1 2 3 3 3 3 3 3 3 3 3 2 2 2 2 3 3 2 3
3 2 1 2 2 3 2 4 5 4 2 5 6 6 5 3 5 4 3 3 3 2 2 2 2 2 2 3 3 3 3 3 3 3 3 3 3 2 2 2 2 2 2 2
3 3 2 0 2 1 2 2 1 2 3 5 4 4 5 2 0 3 4 3 3 3 3 2 2 1 1 2 3 3 3 3 3 3 3 3 3 3 3 3 2 2 2 2
3 3 4 2 1 2 3 2 2 3 3 3 2 5 3 1 3 4 4 3 3 2 2 2 1 1 1 2 2 2 3 3 3 3 3 3 2 2 2 2 2 2 2 2
3 2 1 0 1 2 2 3 3 3 4 4 5 4 1 2 2 2 2 2 1 1 1 1 1 1 1 2 2 2 2 2 3 3 3 3 3 2 2 1 1 2 2 2
2 3 1 0 1 3 3 1 0 2 3 5 5 4 3 2 1 0 1 1 1 2 1 1 1 1 1 1 1 1 1 2 2 2 2 2 3 2 2 1 2 2 1 1
2 2 2 2 4 4 3 2 3 3 3 3 4 3 2 3 2 1 2 2 2 2 1 0 0 1 1 1 1 1 1 1 1 1 1 2 2 2 2 2 2 2 2 2
1 2 3 4 1 1 2 4 4 3 4 4 4 5 2 3 2 2 1 2 2 2 2 1 0 1 1 0 0 1 1 1 1 1 1 1 2 2 2 2 2 2 2 2
1 2 2 2 1 1 3 4 4 2 2 4 5 5 1 3 2 2 1 1 1 1 2 2 1 0 0 0 0 0 0 0 0 1 1 1 1 2 2 2 2 2 2 2
1 3 5 6 3 2 4 5 5 5 5 6 8 8 6 3 2 2 1 1 2 2 2 2 2 2 1 0 0 0 1 1 0 0 0 1 2 2 2 2 2 2 2 2
1 3 5 7 6 4 6 7 7 10 9 8 8 9 7 4 4 2 1 1 2 3 3 3 3 2 2 2 1 1 1 1 1 1 1 1 2 2 2 2 2 3 2 3
1 2 3 6 6 5 8 9 10 11 10 11 11 12 5 3 3 3 3 2 2 3 2 3 3 3 3 2 2 2 1 1 1 1 2 1 1 2 2 3 2 2 2 2
2 2 2 4 2 4 8 10 10 7 7 7 11 9 4 3 3 3 3 3 4 3 2 3 3 3 3 3 2 2 2 2 1 2 1 1 1 2 3 3 2 2 2 2
4 3 2 3 2 7 7 1 5 7 8 8 7 5 3 3 4 4 3 3 3 3 3 3 3 3 3 3 2 1 2 2 1 2 2 1 1 2 2 2 3 3 2 3
3 4 3 2 4 8 5 2 2 4 7 5 6 5 4 3 4 3 1 1 2 2 3 3 2 3 3 2 2 2 2 2 2 2 2 2 2 2 3 3 3 3 2 2
1 2 3 3 4 6 3 0 0 1 5 2 2 3 3 2 3 4 2 3 3 3 2 2 3 3 3 2 2 2 3 2 2 3 3 3 2 3 3 3 3 2 2 3
3 4 6 6 6 7 2 1 2 2 4 2 2 2 2 3 4 4 4 4 3 3 3 3 3 3 3 2 2 2 3 3 3 3 3 3 3 2 3 2 2 2 2 2
7 6 6 5 6 7 2 2 3 4 2 2 3 3 3 4 4 4 4 3 3 3 3 3 3 3 3 2 2 3 3 3 2 2 3 3 2 2 2 2 2 2 2 2
6 6 4 6 6 2 2 3 3 1 2 3 3 4 3 4 4 4 4 3 3 3 3 3 3 4 3 2 2 3 3 2 2 3 3 2 2 2 2 2 2 1 2 2
4 2 2 4 6 4 4 4 3 3 4 4 4 4 3 4 4 4 4 4 4 3 3 3 3 4 4 3 3 3 3 2 2 3 3 2 2 2 2 2 2 2 2 3
3 3 4 6 6 5 4 3 3 4 4 4 4 3 4 4 4 4 4 4 4 4 3 3 3 4 5 4 3 3 2 2 2 3 2 2 2 2 2 2 2 3 3 4
4 5 5 6 4 4 5 3 3 3 4 4 4 4 4 3 4 4 4 4 3 4 3 3 4 4 5 4 4 3 3 2 2 3 3 2 2 2 2 2 2 3 4 5
Wind_Direction
203 229 245 262 260 292 299 288 288 294 320 292 270 271 264 247 238 243 234 227 217 205 171 166 162 148 149 153 152 153 156 152 142 138 144 144 146 137 117 103 120 122 118 114
233 250 285 299 290 286 284 281 289 304 318 304 289 280 269 244 238 240 237 232 203 185 163 161 150 142 144 147 155 157 158 154 151 156 158 149 138 137 123 93 104 130 133 134
246 316 315 291 286 282 281 277 288 299 310 282 287 289 252 236 211 216 231 230 198 185 173 170 157 148 149 148 152 159 158 155 154 151 133 121 108 111 122 148 169 160 147 137
267 286 304 289 287 291 283 311 300 294 294 279 272 290 266 224 217 222 219 213 190 174 154 153 158 173 163 152 135 142 148 149 154 154 160 169 180 189 201 186 184 175 170 156
266 307 284 275 293 294 294 321 300 281 272 284 253 253 264 210 218 219 205 178 143 134 130 131 125 157 140 132 131 135 144 152 154 155 168 172 179 185 168 172 174 184 184 175
253 304 323 313 322 313 322 312 291 271 258 263 237 233 269 221 220 193 158 133 119 101 114 114 95 87 106 123 130 142 148 156 160 170 184 179 187 175 159 172 186 195 192 186
239 210 172 257 280 248 276 306 313 277 239 247 227 232 251 249 145 143 136 130 106 89 92 98 100 101 109 137 145 155 161 165 174 181 190 187 190 186 187 186 193 202 201 212
242 247 180 189 230 248 234 237 227 262 274 286 254 237 251 85 55 81 100 86 80 84 95 106 111 138 168 151 146 160 171 175 175 187 190 177 185 190 201 201 195 201 209 214
261 248 62 92 304 284 234 233 282 298 288 279 249 235 237 95 81 93 110 110 131 122 117 128 129 136 142 141 152 178 181 180 181 186 185 185 185 191 200 215 215 210 206 205
313 281 214 183 274 281 294 291 232 215 266 271 263 238 232 186 200 177 82 77 103 99 76 109 147 163 144 144 171 180 174 190 186 181 192 195 183 188 198 214 231 236 233 209
261 234 236 189 207 217 200 225 228 238 247 255 283 274 352 136 128 90 53 52 33 17 17 358 150 120 112 131 165 172 182 183 179 187 192 191 182 189 195 213 223 226 228 210
227 239 250 230 197 301 244 228 202 213 251 241 265 273 358 67 92 79 35 32 16 354 334 312 41 111 105 96 233 199 206 190 184 182 188 196 190 183 190 213 227 220 226 218
177 191 263 265 256 249 252 244 229 226 263 246 247 260 325 27 40 50 34 38 357 333 325 326 346 332 163 193 259 345 306 274 211 169 191 211 206 191 199 214 225 223 227 232
206 212 221 237 256 220 237 243 227 210 228 249 246 264 279 309 334 346 360 2 327 313 320 336 340 328 311 259 219 331 327 339 353 70 206 222 220 211 216 226 227 225 221 223
140 239 253 269 275 264 252 245 225 223 228 238 260 268 272 293 298 312 331 318 316 331 339 342 330 327 333 344 340 326 309 337 321 273 244 250 241 232 229 234 239 230 222 219
176 242 278 274 261 262 272 258 239 236 240 248 268 276 274 290 314 320 318 322 312 305 311 325 325 323 319 308 301 310 315 310 279 256 248 252 249 238 234 233 236 235 231 223
180 193 242 267 271 303 269 241 223 229 227 224 244 257 294 306 301 298 299 294 288 294 300 300 300 298 303 298 285 281 291 297 270 259 256 245 252 241 238 232 227 233 234 227
174 186 229 275 304 251 247 240 206 225 243 233 254 270 292 296 298 283 265 270 298 310 307 297 299 306 309 308 303 295 297 290 275 281 282 271 282 273 261 240 231 236 242 235
189 183 220 239 255 269 265 227 191 219 268 237 241 270 301 314 312 293 319 353 312 305 298 296 297 298 305 304 301 308 307 297 291 290 291 284 282 275 261 247 241 239 239 243
188 179 211 226 246 255 261 122 20 117 278 271 238 273 299 331 292 280 336 345 340 334 323 321 322 311 304 301 302 299 292 289 285 287 289 287 281 273 253 246 240 243 234 237
176 197 216 229 243 263 253 173 111 187 257 321 323 288 276 243 254 287 317 329 333 328 321 317 306 297 296 307 303 285 285 278 282 297 301 300 292 283 257 247 237 240 236 237
184 190 201 201 225 249 187 138 199 242 293 323 323 307 284 277 296 305 310 314 321 321 311 304 302 301 305 311 303 290 283 290 310 314 305 298 297 298 270 248 248 248 233 238
203 202 199 203 221 250 220 230 257 299 302 303 302 304 303 292 293 300 301 301 300 298 301 302 300 302 306 304 293 289 293 308 315 306 294 290 294 288 270 232 231 237 232 236
222 211 232 262 265 257 254 258 283 294 284 290 293 293 289 277 279 292 297 296 298 297 297 300 302 302 305 310 307 291 303 306 295 288 290 293 288 290 289 256 225 227 233 234
226 179 226 251 270 289 265 266 286 298 300 297 293 289 279 267 270 276 281 282 287 293 295 299 293 292 298 306 303 304 304 299 289 285 288 289 282 276 281 273 235 228 231 228
207 204 217 243 249 252 271 282 299 288 286 285 284 290 288 263 265 273 276 278 283 289 295 297 293 290 293 296 296 297 294 284 278 290 293 287 278 276 276 279 288 262 254 264
Height
1501 1504 1505 1503 1502 1501 1500 1499 1499 1497 1495 1496 1495 1492 1490 1489 1490 1490 1490 1491 1492 1493 1494 1495 1495 1496 1496 1498 1499 1500 1502 1503 1504 1505 1506 1507 1509 1510 1511 1512 1513 1513 1514 1515
1502 1504 1502 1500 1500 1501 1500 1501 1500 1497 1496 1496 1495 1491 1487 1486 1486 1487 1487 1488 1489 1491 1492 1492 1493 1494 1494 1495 1496 1498 1499 1500 1501 1503 1504 1505 1506 1508 1509 1510 1510 1511 1512 1512
1502 1503 1501 1500 1501 1501 1500 1501 1500 1500 1497 1495 1496 1492 1485 1482 1483 1484 1485 1486 1487 1488 1489 1490 1490 1491 1492 1493 1494 1495 1496 1498 1499 1500 1502 1503 1504 1505 1506 1507 1508 1509 1509 1510
1501 1501 1501 1501 1502 1502 1503 1500 1499 1500 1503 1502 1498 1502 1486 1482 1482 1482 1482 1483 1484 1486 1487 1488 1488 1489 1490 1491 1492 1493 1494 1495 1497 1498 1499 1500 1501 1502 1503 1504 1505 1506 1507 1507
1502 1501 1502 1502 1502 1502 1503 1500 1500 1499 1501 1504 1498 1501 1489 1480 1481 1480 1480 1481 1482 1484 1485 1486 1487 1488 1488 1489 1490 1491 1492 1493 1494 1495 1496 1497 1498 1499 1500 1501 1502 1503 1504 1504
1502 1502 1502 1502 1502 1502 1502 1502 1500 1499 1503 1508 1496 1497 1488 1480 1477 1477 1478 1480 1481 1483 1484 1485 1485 1486 1486 1487 1487 1488 1489 1490 1492 1493 1494 1494 1495 1496 1497 1498 1499 1500 1500 1501
1501 1501 1501 1502 1503 1503 1504 1508 1510 1508 1508 1500 1488 1491 1487 1476 1473 1474 1477 1479 1480 1482 1483 1483 1484 1484 1485 1485 1485 1486 1487 1488 1489 1490 1491 1491 1492 1493 1494 1494 1495 1496 1497 1498
1502 1503 1500 1501 1502 1504 1504 1505 1511 1511 1504 1495 1490 1490 1483 1475 1474 1474 1476 1478 1480 1481 1482 1482 1483 1483 1483 1483 1483 1484 1485 1486 1487 1487 1488 1489 1489 1490 1491 1492 1492 1493 1494 1494
1501 1502 1500 1501 1501 1502 1502 1505 1502 1507 1506 1505 1492 1482 1478 1476 1476 1476 1477 1479 1480 1481 1481 1481 1481 1481 1481 1481 1481 1482 1483 1483 1484 1485 1485 1486 1487 1487 1488 1489 1490 1490 1491 1491
1501 1505 1502 1502 1502 1503 1503 1503 1507 1509 1508 1502 1487 1482 1481 1479 1477 1478 1478 1479 1479 1480 1480 1480 1480 1480 1479 1480 1480 1480 1480 1481 1482 1482 1482 1483 1483 1484 1485 1486 1487 1487 1487 1488
1501 1506 1505 1504 1505 1504 1505 1505 1505 1505 1503 1504 1497 1488 1477 1476 1477 1478 1479 1479 1480 1479 1479 1479 1478 1478 1478 1478 1478 1478 1478 1478 1479 1479 1479 1480 1480 1481 1482 1483 1483 1483 1484 1484
1501 1504 1506 1502 1500 1501 1501 1501 1504 1508 1506 1500 1499 1492 1477 1476 1476 1477 1478 1479 1479 1479 1478 1478 1477 1476 1476 1476 1476 1476 1476 1476 1476 1476 1477 1477 1477 1478 1479 1479 1480 1480 1480 1480
1502 1506 1508 1503 1505 1504 1503 1500 1501 1504 1504 1502 1499 1490 1478 1477 1477 1478 1478 1478 1478 1477 1477 1476 1475 1475 1475 1475 1474 1474 1474 1474 1474 1474 1474 1474 1474 1475 1475 1476 1476 1477 1476 1477
1501 1505 1506 1502 1496 1498 1501 1501 1500 1503 1504 1499 1492 1485 1479 1478 1478 1478 1478 1478 1477 1477 1476 1475 1474 1474 1473 1473 1472 1472 1471 1471 1471 1471 1471 1471 1471 1472 1472 1473 1473 1473 1473 1473
1501 1504 1502 1499 1496 1496 1497 1497 1498 1500 1496 1495 1487 1483 1478 1478 1477 1477 1477 1476 1476 1475 1474 1473 1473 1472 1471 1471 1470 1470 1469 1469 1468 1468 1468 1468 1468 1469 1469 1469 1470 1470 1470 1470
1501 1503 1502 1500 1495 1496 1496 1492 1492 1493 1491 1489 1486 1481 1476 1476 1476 1475 1475 1475 1474 1473 1473 1472 1471 1470 1469 1468 1467 1467 1466 1466 1466 1465 1465 1465 1465 1465 1466 1466 1466 1467 1467 1467
1502 1504 1503 1499 1496 1496 1495 1485 1485 1485 1482 1483 1482 1477 1474 1474 1474 1474 1473 1473 1472 1472 1471 1470 1469 1468 1467 1466 1465 1464 1464 1463 1463 1462 1462 1462 1462 1462 1462 1463 1463 1463 1463 1463
1501 1503 1503 1500 1499 1499 1480 1475 1476 1478 1477 1476 1474 1473 1473 1473 1472 1472 1471 1470 1470 1469 1468 1467 1466 1465 1464 1463 1462 1462 1461 1461 1460 1459 1459 1459 1459 1459 1459 1459 1459 1459 1460 1460
1497 1500 1501 1500 1497 1487 1477 1475 1475 1477 1476 1472 1472 1471 1471 1471 1470 1469 1469 1468 1468 1467 1466 1465 1464 1463 1462 1461 1460 1459 1458 1457 1457 1456 1456 1455 1455 1455 1455 1455 1455 1456 1456 1456
1497 1499 1501 1498 1496 1490 1476 1474 1473 1475 1476 1470 1469 1470 1469 1469 1471 1468 1466 1466 1465 1464 1463 1462 1461 1460 1459 1458 1457 1456 1455 1454 1453 1453 1452 1452 1452 1451 1451 1451 1452 1452 1452 1452
1499 1498 1498 1495 1493 1483 1475 1473 1474 1479 1475 1470 1468 1468 1468 1468 1468 1466 1464 1463 1462 1461 1460 1459 1458 1457 1456 1455 1454 1453 1451 1450 1450 1449 1449 1449 1448 1448 1448 1448 1448 1448 1448 1448
1491 1492 1493 1491 1491 1483 1473 1473 1475 1473 1469 1468 1467 1467 1466 1465 1463 1462 1461 1460 1459 1458 1457 1456 1455 1454 1453 1452 1451 1449 1448 1448 1447 1446 1446 1445 1445 1445 1444 1444 1444 1444 1444 1444
1482 1481 1479 1480 1478 1471 1470 1469 1469 1468 1467 1466 1466 1465 1464 1462 1461 1460 1459 1457 1456 1456 1455 1454 1452 1451 1450 1449 1448 1446 1445 1445 1444 1443 1443 1443 1442 1442 1441 1441 1441 1441 1441 1441
1476 1475 1475 1475 1470 1468 1467 1467 1467 1466 1465 1464 1463 1462 1461 1460 1458 1457 1456 1455 1454 1453 1452 1450 1449 1448 1447 1446 1445 1444 1443 1442 1441 1441 1440 1440 1439 1438 1438 1438 1438 1437 1437 1437
1471 1473 1474 1473 1468 1466 1464 1464 1464 1463 1462 1461 1460 1459 1458 1457 1455 1454 1453 1452 1451 1450 1449 1448 1446 1445 1444 1443 1442 1441 1440 1439 1438 1438 1437 1437 1436 1436 1435 1435 1435 1434 1434 1434
1468 1470 1471 1467 1465 1465 1462 1461 1461 1460 1459 1458 1457 1455 1454 1454 1452 1451 1450 1449 1448 1447 1446 1445 1443 1442 1441 1440 1439 1439 1438 1437 1436 1435 1435 1434 1433 1433 1432 1432 1432 1432 1432 1432